Location: Ch�risy
(50.2331°N, 2.9131°E)
Time: 19:57:44
(UTC+00:00)

Cosmos 1634 Rocket - Pass Details

Date: 17 January 2021
Orbit: 960 x 991 km, 82.9° (Epoch: 27 February)

Event Time Altitude Azimuth Distance (km) Brightness Sun altitude
Rises 16:50:51 0° 352° (N) 3,671 6.8 -5.5°
Reaches altitude 10° 16:53:27 10° 358° (N) 2,724 6.1 -5.9°
Maximum altitude 16:59:31 52° 74° (ENE) 1,201 4.2 -6.8°
Drops below altitude 10° 17:05:36 10° 150° (SSE) 2,727 6.3 -7.7°
Sets 17:08:12 0° 156° (SSE) 3,675 7.0 -8.0°
